sat.trackr.live / text

‹ back to catalog

STARLINK-34505

NORAD 64490 · 2025-133U

PAYLOAD ACTIVE UNKNOWN

§ Identity

Operator
Country
US
Launch date
2025-06-23
Launch site
AFETR
Launch vehicle
Mass (kg)
RCS (m²)

Purposes: comms

External: N2YO · Heavens-Above · Gunter

§ Orbital elements

Epoch: 2026-05-25T05:08:58.013376Z

Period
94.10 min
Inclination
53.1568°
Eccentricity
0.0000831
Mean motion
15.30248036 rev/d
Perigee alt
474.5 km
Apogee alt
475.6 km
Semi-major
6,853.2 km
B*
1.4580e-3
RAAN
121.4187°
Arg perigee
91.0562°
Mean anomaly
269.0534°
Rev number
5,288

§ Raw data

STARLINK-345051 64490U 25133U   26145.21456034  .00043138  00000+0  14580-2 0  99982 64490  53.1568 121.4187 0000831  91.0562 269.0534 15.30248036 52886

JSON: /api/v1/satellites/64490 · /tle

For live sub-satellite position, see the globe view (requires WebGL).

§ Visibility from observer

Set your observer location to see the next 7 days of passes ≥ 10°. The values pass through the URL so the page stays shareable.

No JS? Fill the form by hand. The geolocation button needs JavaScript.